Back to catalog

STARLINK-11605

AliveCommunicationsVLEO
NORAD 63134·PAYLOAD·🇺🇸 United States

Launched Mar 3, 2025 from Cape Canaveral Space Force Station

Loading…

Next Passes (next 24 hours)

TLE

FreshSource: CelesTrak SupGP

Epoch: Sep 14, 2026, 20:51 UTC

1 63134C 25043C   26257.86923611  .00047796  00000+0  37126-3 0  2570
2 63134  43.0008 190.5851 0001596 251.0574  91.6864 15.70813248    12

Track STARLINK-11605 in real time with AllMySat

Download on the App Store